Weather History for Safford, AZ

Change the Weather History Date:

Saturday, November 10, 2012

  Actual Average Record
Temperature  
Mean Temperature 53 °F -  
Max Temperature 62 °F 70 °F 86 °F (2005)
Min Temperature 43 °F 37 °F 22 °F (1955)
Degree Days  
Heating Degree Days 12    
Growing Degree Days 3 (Base 50)    
Moisture  
Dew Point 33 °F    
Average Humidity 51    
Maximum Humidity 83    
Minimum Humidity 27    
Precipitation  
Precipitation 0.03 in - - ()
Sea Level Pressure  
Sea Level Pressure 29.83 in    
Wind  
Wind Speed 15 mph (NW)    
Max Wind Speed 25 mph    
Max Gust Speed 34 mph    
Visibility 10 miles    
Events Rain    
Averages and records for this station are not official NWS values.
T = Trace of Precipitation, MM = Missing Value Source: NWS Daily Summary

Daily Weather History Graph

Daily Weather History Graph

Search for Another Location

Airport:

Trip Planner

Search our weather history database for the weather conditions in past years. The results will help you decide how hot, cold, wet, or windy it might be!

Date:

Astronomy

Nov. 10, 2012 Rise Set
Actual Time 6:44 AM MST 5:19 PM MST
Civil Twilight 6:18 AM MST 5:45 PM MST
Nautical Twilight 5:49 AM MST 6:15 PM MST
Astronomical Twilight 5:20 AM MST 6:44 PM MST
Moon 3:04 AM MST (11/10) 2:59 PM MST (11/10)
Length of Visible Light 11h 26m
Length of Day
10h 35m
Waning Crescent, 14% of the Moon is Illuminated
Nov 10
Waning Crescent
Nov 13
New
Nov 20
First Quarter
Nov 28
Full
Dec 6
Last Quarter

Hourly Weather History & Observations

Time (MST) Temp. Windchill Dew Point Humidity Pressure Visibility Wind Dir Wind Speed Gust Speed Precip Events Conditions
12:51 AM 60.1 °F - 44.1 °F 55% 29.69 in 10.0 mi NW 9.2 mph - N/A   Mostly Cloudy
1:51 AM 59.0 °F - 44.1 °F 58% 29.68 in 10.0 mi East 3.5 mph - N/A   Overcast
2:51 AM 62.1 °F - 39.9 °F 44% 29.67 in 10.0 mi South 15.0 mph 23.0 mph N/A   Overcast
3:51 AM 62.1 °F - 37.9 °F 41% 29.66 in 10.0 mi SSW 11.5 mph 21.9 mph N/A   Overcast
4:51 AM 54.0 °F - 46.9 °F 77% 29.70 in 10.0 mi NW 21.9 mph 28.8 mph N/A   Overcast
5:51 AM 50.0 °F - 45.0 °F 83% 29.73 in 8.0 mi NW 23.0 mph 29.9 mph 0.01 in Rain Light Rain
6:51 AM 48.0 °F - 41.0 °F 77% 29.80 in 10.0 mi NW 25.3 mph 34.5 mph 0.00 in Rain Light Rain
7:51 AM 46.0 °F 38.0 °F 39.9 °F 79% 29.86 in 10.0 mi NW 21.9 mph 27.6 mph 0.02 in Rain Light Rain
8:51 AM 46.9 °F - 37.0 °F 68% 29.88 in 10.0 mi NW 24.2 mph 32.2 mph 0.00 in   Overcast
9:51 AM 48.9 °F - 35.1 °F 59% 29.88 in 10.0 mi NW 24.2 mph 32.2 mph N/A   Mostly Cloudy
10:51 AM 50.0 °F - 34.0 °F 54% 29.89 in 10.0 mi NNW 18.4 mph - N/A   Overcast
11:51 AM 54.0 °F - 32.0 °F 43% 29.86 in 10.0 mi NW 20.7 mph 27.6 mph N/A   Clear
12:51 PM 55.0 °F - 30.0 °F 38% 29.84 in 10.0 mi NW 18.4 mph 27.6 mph N/A   Partly Cloudy
1:51 PM 57.0 °F - 26.1 °F 30% 29.81 in 10.0 mi WNW 19.6 mph 28.8 mph N/A   Clear
2:51 PM 55.0 °F - 24.1 °F 30% 29.80 in 10.0 mi NW 19.6 mph 29.9 mph N/A   Scattered Clouds
3:51 PM 55.9 °F - 21.9 °F 27% 29.80 in 10.0 mi WNW 23.0 mph 32.2 mph N/A   Partly Cloudy
4:51 PM 54.0 °F - 21.9 °F 29% 29.82 in 10.0 mi NW 18.4 mph 24.2 mph N/A   Clear
5:51 PM 50.0 °F - 21.0 °F 32% 29.85 in 10.0 mi NW 17.3 mph - N/A   Clear
6:51 PM 48.0 °F - 23.0 °F 37% 29.88 in 10.0 mi NW 12.7 mph - N/A   Clear
7:51 PM 46.9 °F - 25.0 °F 42% 29.91 in 10.0 mi NW 5.8 mph - N/A   Overcast
8:51 PM 46.9 °F - 28.9 °F 50% 29.94 in 10.0 mi NW 16.1 mph 25.3 mph N/A   Overcast
9:51 PM 46.0 °F 38.8 °F 30.9 °F 56% 29.98 in 10.0 mi NW 18.4 mph - N/A   Overcast
10:51 PM 44.1 °F 39.0 °F 30.0 °F 58% 29.99 in 10.0 mi NW 9.2 mph - 0.00 in   Overcast
11:51 PM 43.0 °F 41.3 °F 30.9 °F 62% 30.00 in 10.0 mi West 3.5 mph - N/A   Overcast